(2020 FF5) |
Classification: Amor [NEO] SPK-ID: 54016369 |
[ hide orbit diagram ]
For accurate long-term ephemerides, please instead use our Horizons system.This orbit viewer was implemented using two-body methods, and hence should not be used for determining accurate long-term trajectories (over several years or decades) or planetary encounter circumstances.
Orbital Elements at Epoch 2459000.5 (2020-May-31.0) TDB
Reference: JPL 10 (heliocentric ecliptic J2000)
Element | Value | Uncertainty (1-sigma) | Units |
e | .3841378444553327 | 2.149e-05 | |
a | 1.692323862086215 | 6.2678e-05 | au |
q | 1.042238221584093 | 2.2336e-06 | au |
i | 2.549139766348093 | 0.00012269 | deg |
node | 83.46912638296031 | 0.00012958 | deg |
peri | 106.3113129637426 | 0.00016398 | deg |
M | 27.52724511586864 | 0.0015891 | deg |
tp | 2458939.012916560567 (2020-Mar-30.51291656) | 0.00013609 | TDB |
period | 804.1251474683771 2.20 | 0.044673 0.0001223 | d yr |
n | .4476915081357499 | 2.4872e-05 | deg/d |
Q | 2.342409502588338 | 8.6755e-05 | au |
|
| | Orbit Determination Parameters
Additional Information
|
[ show covariance matrix ]
Physical Parameter Table
Parameter |
Symbol |
Value |
Units |
Sigma |
Reference |
Notes |
absolute magnitude |
H |
25.005 |
|
.37854 |
10 |
autocmod 2.8 |
|
[ show close-approach data ]
|